Station History

Weather Underground - logo

Station Historical Data
Daily Summary for February 19, 2018 Units:  English    Metric   Both
« Previous Day
Next Day »
Daily Weekly Monthly Yearly Custom
  High: Low: Average:
Temperature: 52.7 °F 31.8 °F 42.2 °F
Dew Point: 34.7 °F 24.9 °F 30.5 °F
Humidity: 88 % 35 % 65 %
Wind Speed: 18.4 mph 0.0 mph 1.9 mph
Wind Gust: 18.4 mph - -
Wind:- - West
Pressure: 30.15 in 29.92 in -
Precipitation: 0.00 in    
Historical Graphs
 
 
Tabular Data for February 19, 2018
Time Temperature Dew Point Pressure Wind Wind Speed Wind Gust Humidity Rainfall Rate (Hourly)
00:03 45.9 °F 33.6 °F 29.93 in WNW 4.6 mph 4.6 mph 62 % 0.00 in
00:08 45.6 °F 33.3 °F 29.92 in WNW 3.5 mph 3.5 mph 62 % 0.00 in
00:13 45.5 °F 33.2 °F 29.93 in WNW 11.5 mph 11.5 mph 62 % 0.00 in
00:18 45.5 °F 33.2 °F 29.93 in WNW 10.4 mph 10.4 mph 62 % 0.00 in
00:23 45.6 °F 33.3 °F 29.93 in NW 3.5 mph 3.5 mph 62 % 0.00 in
00:28 45.2 °F 33.3 °F 29.93 in NW 4.0 mph 4.0 mph 63 % 0.00 in
00:33 44.8 °F 33.4 °F 29.93 in WNW 3.5 mph 3.5 mph 64 % 0.00 in
00:38 44.8 °F 33.4 °F 29.94 in NW 4.6 mph 4.6 mph 64 % 0.00 in
00:43 44.6 °F 33.2 °F 29.94 in NW 4.6 mph 4.6 mph 64 % 0.00 in
00:48 44.4 °F 33.4 °F 29.94 in NW 4.0 mph 4.0 mph 65 % 0.00 in
00:53 44.2 °F 33.2 °F 29.94 in NNW 4.0 mph 4.0 mph 65 % 0.00 in
00:58 44.1 °F 33.1 °F 29.94 in NW 4.0 mph 4.0 mph 65 % 0.00 in
01:03 44.4 °F 33.4 °F 29.94 in NW 3.5 mph 3.5 mph 65 % 0.00 in
01:08 44.3 °F 33.3 °F 29.94 in NW 4.6 mph 4.6 mph 65 % 0.00 in
01:13 44.1 °F 33.1 °F 29.94 in NW 1.2 mph 1.2 mph 65 % 0.00 in
01:18 43.8 °F 33.2 °F 29.94 in NW 1.2 mph 1.2 mph 66 % 0.00 in
01:24 43.7 °F 33.1 °F 29.94 in WNW 1.2 mph   66 % 0.00 in
01:28 43.5 °F 33.3 °F 29.94 in WNW 1.2 mph   67 % 0.00 in
01:34 43.3 °F 33.1 °F 29.95 in WNW 1.2 mph   67 % 0.00 in
01:39 43.0 °F 33.2 °F 29.95 in Calm     68 % 0.00 in
01:44 42.7 °F 32.9 °F 29.95 in Calm     68 % 0.00 in
01:49 42.5 °F 33.0 °F 29.94 in NNW 1.2 mph   69 % 0.00 in
01:54 42.2 °F 32.8 °F 29.94 in Calm     69 % 0.00 in
01:59 41.9 °F 33.2 °F 29.95 in Calm     71 % 0.00 in
02:04 41.5 °F 32.8 °F 29.94 in Calm     71 % 0.00 in
02:09 41.2 °F 32.9 °F 29.94 in Calm     72 % 0.00 in
02:14 41.0 °F 32.7 °F 29.94 in Calm     72 % 0.00 in
02:19 40.7 °F 32.4 °F 29.94 in Calm     72 % 0.00 in
02:24 40.2 °F 32.2 °F 29.94 in Calm     73 % 0.00 in
02:29 39.9 °F 32.6 °F 29.94 in Calm     75 % 0.00 in
02:34 39.9 °F 32.6 °F 29.95 in NNW 1.2 mph   75 % 0.00 in
02:39 40.0 °F 32.7 °F 29.95 in Calm     75 % 0.00 in
02:44 40.2 °F 32.6 °F 29.95 in Calm     74 % 0.00 in
02:49 40.1 °F 32.1 °F 29.95 in Calm     73 % 0.00 in
02:54 39.9 °F 32.3 °F 29.95 in Calm     74 % 0.00 in
02:59 39.7 °F 32.4 °F 29.95 in Calm     75 % 0.00 in
03:04 39.5 °F 32.2 °F 29.95 in Calm     75 % 0.00 in
03:09 39.3 °F 32.4 °F 29.95 in Calm     76 % 0.00 in
03:14 39.3 °F 32.4 °F 29.95 in Calm     76 % 0.00 in
03:19 39.1 °F 32.2 °F 29.95 in Calm     76 % 0.00 in
03:24 38.8 °F 31.9 °F 29.95 in Calm     76 % 0.00 in
03:29 38.5 °F 31.9 °F 29.94 in Calm     77 % 0.00 in
03:34 38.3 °F 32.0 °F 29.94 in Calm     78 % 0.00 in
03:39 38.0 °F 31.7 °F 29.94 in Calm     78 % 0.00 in
03:44 37.8 °F 31.9 °F 29.94 in Calm     79 % 0.00 in
03:49 37.6 °F 32.0 °F 29.94 in Calm     80 % 0.00 in
03:54 37.5 °F 31.6 °F 29.94 in Calm     79 % 0.00 in
03:59 37.2 °F 31.3 °F 29.94 in Calm     79 % 0.00 in
04:05 37.1 °F 31.8 °F 29.95 in Calm     81 % 0.00 in
04:10 37.0 °F 31.7 °F 29.94 in Calm     81 % 0.00 in
04:15 36.8 °F 31.5 °F 29.94 in Calm     81 % 0.00 in
04:20 36.7 °F 31.4 °F 29.94 in Calm     81 % 0.00 in
04:25 36.5 °F 31.2 °F 29.94 in Calm     81 % 0.00 in
04:30 36.4 °F 31.1 °F 29.94 in Calm     81 % 0.00 in
04:35 36.2 °F 30.9 °F 29.94 in Calm     81 % 0.00 in
04:40 35.9 °F 30.6 °F 29.94 in Calm     81 % 0.00 in
04:45 35.7 °F 30.7 °F 29.94 in Calm     82 % 0.00 in
04:50 35.6 °F 30.6 °F 29.95 in Calm     82 % 0.00 in
04:55 35.5 °F 30.5 °F 29.95 in Calm     82 % 0.00 in
05:00 35.3 °F 30.4 °F 29.94 in Calm     82 % 0.00 in
05:05 35.2 °F 30.6 °F 29.94 in Calm     83 % 0.00 in
05:10 35.2 °F 30.6 °F 29.95 in Calm     83 % 0.00 in
05:15 35.2 °F 30.3 °F 29.95 in Calm     82 % 0.00 in
05:20 35.1 °F 30.5 °F 29.95 in Calm     83 % 0.00 in
05:25 34.9 °F 30.3 °F 29.95 in Calm     83 % 0.00 in
05:30 34.8 °F 30.2 °F 29.95 in Calm     83 % 0.00 in
05:35 34.7 °F 30.1 °F 29.95 in Calm     83 % 0.00 in
05:40 34.6 °F 30.3 °F 29.95 in Calm     84 % 0.00 in
05:45 34.3 °F 29.7 °F 29.96 in Calm     83 % 0.00 in
05:50 33.9 °F 29.6 °F 29.96 in Calm     84 % 0.00 in
05:55 33.6 °F 29.3 °F 29.96 in Calm     84 % 0.00 in
06:00 33.4 °F 29.1 °F 29.96 in Calm     84 % 0.00 in
06:05 33.3 °F 29.3 °F 29.96 in Calm     85 % 0.00 in
06:10 33.2 °F 29.2 °F 29.96 in Calm     85 % 0.00 in
06:15 33.6 °F 29.6 °F 29.96 in Calm     85 % 0.00 in
06:21 34.0 °F 29.7 °F 29.96 in Calm     84 % 0.00 in
06:26 34.0 °F 29.7 °F 29.96 in Calm     84 % 0.00 in
06:31 33.9 °F 29.3 °F 29.97 in Calm     83 % 0.00 in
06:36 33.7 °F 29.4 °F 29.97 in Calm     84 % 0.00 in
06:41 32.9 °F 28.0 °F 29.97 in Calm     82 % 0.00 in
06:46 32.3 °F 28.0 °F 29.97 in Calm     84 % 0.00 in
06:51 31.9 °F 27.9 °F 29.98 in Calm     85 % 0.00 in
06:56 31.8 °F 28.1 °F 29.98 in Calm     86 % 0.00 in
07:01 31.9 °F 28.5 °F 29.98 in Calm     87 % 0.00 in
07:06 32.2 °F 29.0 °F 29.98 in Calm     88 % 0.00 in
07:11 32.6 °F 29.4 °F 29.98 in Calm     88 % 0.00 in
07:16 32.7 °F 29.5 °F 29.98 in Calm     88 % 0.00 in
07:21 32.9 °F 29.7 °F 29.98 in Calm     88 % 0.00 in
07:26 33.5 °F 30.3 °F 29.98 in Calm     88 % 0.00 in
07:31 34.0 °F 30.5 °F 29.98 in Calm     87 % 0.00 in
07:36 34.6 °F 31.1 °F 29.98 in Calm     87 % 0.00 in
07:41 35.8 °F 31.7 °F 29.98 in Calm     85 % 0.00 in
07:46 37.3 °F 32.6 °F 29.98 in Calm     83 % 0.00 in
07:51 39.2 °F 33.9 °F 29.98 in Calm     81 % 0.00 in
07:56 40.4 °F 34.4 °F 29.99 in Calm     79 % 0.00 in
08:01 41.7 °F 34.7 °F 29.99 in Calm     76 % 0.00 in
08:06 42.7 °F 34.3 °F 29.98 in Calm     72 % 0.00 in
08:11 43.2 °F 34.1 °F 29.98 in Calm     70 % 0.00 in
08:16 43.1 °F 33.6 °F 29.98 in Calm     69 % 0.00 in
08:21 42.8 °F 33.3 °F 29.98 in Calm     69 % 0.00 in
08:26 42.9 °F 33.4 °F 29.99 in Calm     69 % 0.00 in
08:31 43.2 °F 33.7 °F 29.99 in Calm     69 % 0.00 in
08:36 43.4 °F 33.9 °F 29.99 in Calm     69 % 0.00 in
08:41 43.7 °F 32.7 °F 29.99 in NW 2.3 mph 2.3 mph 65 % 0.00 in
08:46 43.7 °F 32.3 °F 29.99 in NNW 2.3 mph 2.3 mph 64 % 0.00 in
08:51 43.7 °F 31.9 °F 29.99 in North 1.2 mph   63 % 0.00 in
08:56 43.8 °F 32.4 °F 29.99 in WNW 2.0 mph 2.0 mph 64 % 0.00 in
09:01 43.7 °F 31.9 °F 29.99 in NW 1.2 mph 1.2 mph 63 % 0.00 in
09:06 44.0 °F 32.2 °F 29.99 in WNW 3.5 mph 3.5 mph 63 % 0.00 in
09:11 44.5 °F 31.9 °F 29.99 in NW 2.3 mph 2.3 mph 61 % 0.00 in
09:16 44.8 °F 32.2 °F 30.00 in WNW 2.3 mph 2.7 mph 61 % 0.00 in
09:22 44.8 °F 31.8 °F 30.00 in NW 3.5 mph 3.5 mph 60 % 0.00 in
09:26 45.1 °F 32.0 °F 30.00 in North 3.0 mph 3.0 mph 60 % 0.00 in
09:32 45.5 °F 31.6 °F 30.00 in West 2.3 mph 2.3 mph 58 % 0.00 in
09:37 45.5 °F 29.8 °F 30.00 in NNE 5.8 mph 5.8 mph 54 % 0.00 in
09:42 45.4 °F 30.2 °F 30.00 in WNW 3.5 mph 3.5 mph 55 % 0.00 in
09:47 45.5 °F 30.3 °F 30.00 in WNW 5.8 mph 5.8 mph 55 % 0.00 in
09:52 45.4 °F 29.3 °F 30.00 in NNW 5.8 mph 5.8 mph 53 % 0.00 in
09:57 45.4 °F 28.8 °F 30.00 in NW 6.9 mph 6.9 mph 52 % 0.00 in
10:02 45.1 °F 29.0 °F 30.00 in NW 3.5 mph 3.5 mph 53 % 0.00 in
10:07 45.2 °F 29.1 °F 30.00 in North 3.5 mph 3.5 mph 53 % 0.00 in
10:12 45.6 °F 29.0 °F 30.00 in NW 4.0 mph 4.0 mph 52 % 0.00 in
10:17 45.7 °F 29.1 °F 30.00 in NW 5.0 mph 5.0 mph 52 % 0.00 in
10:22 46.2 °F 30.0 °F 30.01 in WSW 4.0 mph 4.0 mph 53 % 0.00 in
10:27 46.7 °F 29.0 °F 30.01 in West 3.5 mph 3.5 mph 50 % 0.00 in
10:32 46.9 °F 28.7 °F 30.01 in NW 2.3 mph 2.3 mph 49 % 0.00 in
10:37 47.3 °F 29.6 °F 30.01 in WNW 3.5 mph 3.5 mph 50 % 0.00 in
10:42 47.3 °F 29.6 °F 30.01 in WNW 3.5 mph 3.5 mph 50 % 0.00 in
10:47 47.1 °F 29.9 °F 30.00 in NW 3.5 mph 3.5 mph 51 % 0.00 in
10:52 47.2 °F 30.5 °F 30.00 in WNW 5.8 mph 5.8 mph 52 % 0.00 in
10:57 47.2 °F 30.0 °F 30.00 in WNW 3.5 mph 3.5 mph 51 % 0.00 in
11:02 47.6 °F 29.9 °F 30.00 in NW 3.5 mph 3.5 mph 50 % 0.00 in
11:07 47.8 °F 30.5 °F 30.00 in WNW 4.0 mph 4.0 mph 51 % 0.00 in
11:12 48.1 °F 29.3 °F 30.00 in NW 3.5 mph 3.5 mph 48 % 0.00 in
11:17 48.3 °F 30.0 °F 30.00 in WNW 1.2 mph 1.2 mph 49 % 0.00 in
11:22 49.0 °F 29.6 °F 30.00 in NW 3.5 mph 3.5 mph 47 % 0.00 in
11:27 49.6 °F 29.6 °F 30.00 in NE 3.5 mph 3.5 mph 46 % 0.00 in
11:32 49.8 °F 28.7 °F 30.00 in NW 6.0 mph 6.0 mph 44 % 0.00 in
11:37 49.8 °F 28.2 °F 30.00 in NW 6.9 mph 6.9 mph 43 % 0.00 in
11:42 49.9 °F 28.8 °F 30.00 in WSW 5.8 mph 5.8 mph 44 % 0.00 in
11:47 50.4 °F 28.1 °F 30.00 in NW 4.6 mph 4.6 mph 42 % 0.00 in
11:52 50.4 °F 28.7 °F 30.00 in WNW 3.5 mph 3.5 mph 43 % 0.00 in
11:57 50.3 °F 29.2 °F 30.00 in WNW 3.5 mph 3.5 mph 44 % 0.00 in
12:02 49.1 °F 28.1 °F 30.00 in NW 6.9 mph 6.9 mph 44 % 0.00 in
12:08 48.4 °F 28.5 °F 30.00 in NW 3.5 mph 3.5 mph 46 % 0.00 in
12:13 48.2 °F 28.4 °F 30.00 in NW 6.9 mph 6.9 mph 46 % 0.00 in
12:18 48.3 °F 27.9 °F 30.00 in NW 4.0 mph 4.0 mph 45 % 0.00 in
12:23 49.4 °F 29.5 °F 29.99 in NW 4.6 mph 4.6 mph 46 % 0.00 in
12:28 49.6 °F 28.0 °F 29.99 in NW 4.6 mph 4.6 mph 43 % 0.00 in
12:33 49.2 °F 28.2 °F 29.99 in NW 6.9 mph 6.9 mph 44 % 0.00 in
12:38 49.6 °F 28.6 °F 29.99 in NW 3.5 mph 3.5 mph 44 % 0.00 in
12:43 50.2 °F 28.0 °F 29.99 in NW 4.6 mph 4.6 mph 42 % 0.00 in
12:48 50.3 °F 27.5 °F 29.99 in NW 6.9 mph 6.9 mph 41 % 0.00 in
12:53 50.2 °F 27.4 °F 29.99 in NW 6.0 mph 6.0 mph 41 % 0.00 in
12:58 50.4 °F 28.7 °F 29.99 in NW 6.9 mph 6.9 mph 43 % 0.00 in
13:03 50.1 °F 28.4 °F 29.99 in NNE 3.5 mph 3.5 mph 43 % 0.00 in
13:08 50.3 °F 26.9 °F 29.99 in NW 5.8 mph 5.8 mph 40 % 0.00 in
13:14 50.3 °F 28.1 °F 29.98 in WNW 5.0 mph 5.0 mph 42 % 0.00 in
13:19 51.0 °F 27.5 °F 29.98 in NNW 3.5 mph 3.5 mph 40 % 0.00 in
13:24 50.8 °F 27.3 °F 29.98 in WNW 8.1 mph 8.1 mph 40 % 0.00 in
13:29 50.5 °F 26.4 °F 29.98 in West 3.5 mph 3.5 mph 39 % 0.00 in
13:34 50.2 °F 26.8 °F 29.98 in WNW 7.0 mph 7.0 mph 40 % 0.00 in
13:39 49.5 °F 26.1 °F 29.98 in NNW 4.6 mph 4.6 mph 40 % 0.00 in
13:44 49.2 °F 27.1 °F 29.98 in NNE 3.5 mph 3.5 mph 42 % 0.00 in
13:49 49.5 °F 27.3 °F 29.98 in NW 1.2 mph 1.2 mph 42 % 0.00 in
13:54 50.4 °F 27.0 °F 29.98 in WNW 2.3 mph 2.3 mph 40 % 0.00 in
13:59 50.5 °F 27.0 °F 29.98 in NW 3.5 mph 3.5 mph 40 % 0.00 in
14:04 50.2 °F 26.2 °F 29.98 in WNW 3.5 mph 3.5 mph 39 % 0.00 in
14:09 51.0 °F 27.5 °F 29.98 in NNW 4.0 mph 4.0 mph 40 % 0.00 in
14:14 51.0 °F 26.9 °F 29.98 in West 5.0 mph 5.0 mph 39 % 0.00 in
14:19 51.4 °F 27.2 °F 29.98 in NNW 5.8 mph 5.8 mph 39 % 0.00 in
14:24 52.1 °F 26.6 °F 29.98 in WNW 5.8 mph 5.8 mph 37 % 0.00 in
14:29 52.3 °F 26.8 °F 29.98 in NW 6.0 mph 6.0 mph 37 % 0.00 in
14:34 52.7 °F 27.8 °F 29.98 in WNW 6.9 mph 6.9 mph 38 % 0.00 in
14:39 52.4 °F 26.9 °F 29.98 in SW 3.5 mph 3.5 mph 37 % 0.00 in
14:44 52.1 °F 27.9 °F 29.97 in WNW 8.1 mph 8.1 mph 39 % 0.00 in
14:49 52.4 °F 26.9 °F 29.97 in WNW 8.1 mph 8.1 mph 37 % 0.00 in
14:54 51.9 °F 25.8 °F 29.97 in NW 5.8 mph 5.8 mph 36 % 0.00 in
14:59 51.4 °F 26.0 °F 29.98 in WNW 5.8 mph 5.8 mph 37 % 0.00 in
15:04 51.7 °F 24.9 °F 29.97 in NNW 3.5 mph 3.5 mph 35 % 0.00 in
15:09 52.2 °F 29.8 °F 29.98 in West 18.4 mph 18.4 mph 42 % 0.00 in
15:14 51.8 °F 31.1 °F 29.99 in NW 5.8 mph 5.8 mph 45 % 0.00 in
15:19 51.2 °F 31.6 °F 29.99 in WNW 9.2 mph 9.2 mph 47 % 0.00 in
15:24 50.3 °F 31.3 °F 29.99 in West 10.4 mph 10.4 mph 48 % 0.00 in
15:29 49.6 °F 32.7 °F 29.99 in NNW 6.9 mph 6.9 mph 52 % 0.00 in
15:34 49.3 °F 33.3 °F 29.99 in WNW 3.5 mph 3.5 mph 54 % 0.00 in
15:39 48.6 °F 33.1 °F 30.00 in WNW 4.6 mph 4.6 mph 55 % 0.00 in
15:44 48.1 °F 32.7 °F 30.00 in WSW 5.0 mph 5.0 mph 55 % 0.00 in
15:49 48.0 °F 31.2 °F 30.00 in East 4.6 mph 4.6 mph 52 % 0.00 in
15:54 48.2 °F 31.4 °F 30.00 in NNW 5.0 mph 5.0 mph 52 % 0.00 in
15:59 48.3 °F 31.5 °F 30.00 in SE 3.5 mph 3.5 mph 52 % 0.00 in
16:04 48.5 °F 31.7 °F 30.00 in West 5.8 mph 5.8 mph 52 % 0.00 in
16:09 48.5 °F 32.1 °F 30.00 in ESE 3.5 mph 3.5 mph 53 % 0.00 in
16:14 48.5 °F 32.1 °F 29.99 in East 2.0 mph 2.0 mph 53 % 0.00 in
16:19 48.6 °F 32.2 °F 29.99 in Calm   0.7 mph 53 % 0.00 in
16:24 48.7 °F 31.4 °F 30.00 in NW 1.2 mph   51 % 0.00 in
16:29 48.6 °F 31.8 °F 30.00 in East 5.8 mph 5.8 mph 52 % 0.00 in
16:34 48.5 °F 31.7 °F 30.00 in East 3.0 mph 3.0 mph 52 % 0.00 in
16:39 48.3 °F 30.5 °F 30.00 in NW 1.2 mph 1.2 mph 50 % 0.00 in
16:44 48.2 °F 31.4 °F 30.00 in NW 1.2 mph   52 % 0.00 in
16:49 48.0 °F 30.7 °F 30.00 in East 3.5 mph 3.5 mph 51 % 0.00 in
16:54 47.9 °F 30.6 °F 30.00 in WNW 2.3 mph 2.3 mph 51 % 0.00 in
16:59 47.8 °F 30.0 °F 30.00 in SE 2.3 mph 2.3 mph 50 % 0.00 in
17:04 47.8 °F 30.0 °F 30.00 in Calm   0.1 mph 50 % 0.00 in
17:09 47.7 °F 29.5 °F 30.00 in Calm     49 % 0.00 in
17:14 47.6 °F 29.9 °F 30.00 in WNW 1.2 mph   50 % 0.00 in
17:19 47.4 °F 30.2 °F 30.00 in Calm     51 % 0.00 in
17:24 47.3 °F 29.6 °F 30.00 in SE 1.2 mph   50 % 0.00 in
17:29 47.0 °F 29.3 °F 30.00 in SE 1.2 mph   50 % 0.00 in
17:35 46.8 °F 29.1 °F 30.00 in WNW 1.2 mph 1.2 mph 50 % 0.00 in
17:40 46.7 °F 29.5 °F 30.00 in Calm   0.1 mph 51 % 0.00 in
17:45 46.5 °F 29.3 °F 30.00 in ENE 1.2 mph   51 % 0.00 in
17:50 46.3 °F 29.6 °F 30.01 in Calm     52 % 0.00 in
17:55 45.9 °F 29.7 °F 30.01 in Calm     53 % 0.00 in
18:00 45.5 °F 29.8 °F 30.01 in Calm     54 % 0.00 in
18:05 45.1 °F 30.8 °F 30.01 in Calm     57 % 0.00 in
18:10 44.6 °F 31.1 °F 30.01 in Calm     59 % 0.00 in
18:15 43.9 °F 32.5 °F 30.02 in Calm     64 % 0.00 in
18:20 43.2 °F 31.8 °F 30.02 in Calm     64 % 0.00 in
18:25 42.8 °F 32.2 °F 30.02 in Calm     66 % 0.00 in
18:30 42.4 °F 32.2 °F 30.02 in Calm     67 % 0.00 in
18:35 41.9 °F 31.7 °F 30.02 in Calm     67 % 0.00 in
18:40 41.4 °F 32.3 °F 30.02 in Calm     70 % 0.00 in
18:45 41.1 °F 32.1 °F 30.03 in Calm     70 % 0.00 in
18:50 40.9 °F 31.9 °F 30.03 in Calm     70 % 0.00 in
18:55 40.7 °F 31.7 °F 30.03 in Calm     70 % 0.00 in
19:00 40.8 °F 31.8 °F 30.03 in Calm     70 % 0.00 in
19:05 40.8 °F 32.1 °F 30.04 in Calm     71 % 0.00 in
19:10 40.8 °F 31.8 °F 30.04 in Calm     70 % 0.00 in
19:15 41.1 °F 31.7 °F 30.04 in Calm     69 % 0.00 in
19:20 41.5 °F 31.7 °F 30.04 in Calm     68 % 0.00 in
19:25 41.7 °F 31.2 °F 30.04 in NW 1.2 mph   66 % 0.00 in
19:30 41.8 °F 31.3 °F 30.04 in Calm     66 % 0.00 in
19:35 41.3 °F 31.9 °F 30.04 in Calm     69 % 0.00 in
19:40 40.7 °F 32.0 °F 30.04 in Calm     71 % 0.00 in
19:45 40.1 °F 32.1 °F 30.05 in Calm     73 % 0.00 in
19:50 39.4 °F 31.8 °F 30.05 in Calm     74 % 0.00 in
19:55 38.9 °F 31.6 °F 30.05 in Calm     75 % 0.00 in
20:00 38.9 °F 31.6 °F 30.05 in Calm     75 % 0.00 in
20:05 38.9 °F 31.3 °F 30.05 in Calm     74 % 0.00 in
20:10 38.9 °F 31.3 °F 30.05 in Calm     74 % 0.00 in
20:15 38.7 °F 31.5 °F 30.06 in Calm     75 % 0.00 in
20:20 38.7 °F 30.8 °F 30.06 in Calm     73 % 0.00 in
20:25 38.9 °F 31.0 °F 30.06 in Calm     73 % 0.00 in
20:30 38.7 °F 30.8 °F 30.06 in Calm     73 % 0.00 in
20:35 38.5 °F 30.9 °F 30.06 in NW 2.0 mph 2.0 mph 74 % 0.00 in
20:40 37.6 °F 30.7 °F 30.07 in Calm     76 % 0.00 in
20:45 37.7 °F 31.1 °F 30.07 in Calm     77 % 0.00 in
20:50 37.9 °F 30.7 °F 30.07 in Calm     75 % 0.00 in
20:55 37.7 °F 30.8 °F 30.07 in WNW 1.2 mph   76 % 0.00 in
21:00 37.5 °F 30.6 °F 30.07 in Calm     76 % 0.00 in
21:05 37.5 °F 30.6 °F 30.07 in Calm     76 % 0.00 in
21:10 37.8 °F 30.9 °F 30.08 in Calm     76 % 0.00 in
21:15 38.0 °F 30.8 °F 30.08 in WNW 1.2 mph   75 % 0.00 in
21:20 38.0 °F 30.8 °F 30.08 in Calm     75 % 0.00 in
21:25 37.8 °F 30.6 °F 30.09 in Calm     75 % 0.00 in
21:30 37.6 °F 30.7 °F 30.09 in Calm     76 % 0.00 in
21:35 37.2 °F 30.7 °F 30.09 in Calm     77 % 0.00 in
21:40 36.9 °F 30.4 °F 30.09 in Calm     77 % 0.00 in
21:45 36.9 °F 30.4 °F 30.10 in Calm     77 % 0.00 in
21:50 37.0 °F 30.5 °F 30.10 in Calm     77 % 0.00 in
21:55 36.9 °F 30.4 °F 30.10 in Calm     77 % 0.00 in
22:00 36.9 °F 30.7 °F 30.10 in Calm     78 % 0.00 in
22:05 36.8 °F 30.3 °F 30.10 in Calm     77 % 0.00 in
22:10 36.6 °F 30.1 °F 30.10 in Calm     77 % 0.00 in
22:15 36.4 °F 30.2 °F 30.11 in Calm     78 % 0.00 in
22:20 36.1 °F 29.9 °F 30.11 in Calm     78 % 0.00 in
22:25 35.9 °F 29.7 °F 30.11 in Calm     78 % 0.00 in
22:30 35.6 °F 29.4 °F 30.11 in Calm     78 % 0.00 in
22:35 35.1 °F 29.2 °F 30.12 in Calm     79 % 0.00 in
22:40 34.5 °F 29.0 °F 30.12 in Calm     80 % 0.00 in
22:45 34.3 °F 29.4 °F 30.12 in Calm     82 % 0.00 in
22:50 34.1 °F 29.2 °F 30.12 in Calm     82 % 0.00 in
22:55 33.7 °F 28.8 °F 30.12 in Calm     82 % 0.00 in
23:00 33.3 °F 28.7 °F 30.12 in Calm     83 % 0.00 in
23:05 32.9 °F 28.6 °F 30.13 in Calm     84 % 0.00 in
23:10 32.9 °F 28.9 °F 30.13 in Calm     85 % 0.00 in
23:15 33.1 °F 29.1 °F 30.14 in Calm     85 % 0.00 in
23:20 32.9 °F 28.6 °F 30.13 in Calm     84 % 0.00 in
23:25 32.7 °F 28.7 °F 30.14 in Calm     85 % 0.00 in
23:30 32.5 °F 28.5 °F 30.14 in Calm     85 % 0.00 in
23:35 32.3 °F 28.6 °F 30.14 in Calm     86 % 0.00 in
23:40 32.3 °F 28.6 °F 30.14 in Calm     86 % 0.00 in
23:45 32.3 °F 28.9 °F 30.14 in Calm     87 % 0.00 in
23:50 32.2 °F 28.8 °F 30.15 in NW 2.3 mph 2.3 mph 87 % 0.00 in
23:55 32.3 °F 28.6 °F 30.15 in Calm     86 % 0.00 in
Park Place, Exeter, Tulare County, California, USA
Compliments of Weather Underground - 2.75 mb